Time,TemperatureF,DewpointF,PressureIn,WindDirection,WindDirectionDegrees,WindSpeedMPH,WindSpeedGustMPH,Humidity,HourlyPrecipIn,Conditions,Clouds,dailyrainin,SolarRadiationWatts/m^2,SoftwareType,DateUTC
2013-04-29 01:00:00,43.0,40.0,-100.00,South,180,3.0,-999.0,88,-99.99,,,-99.99,0.000000,,2013-04-29 06:00:00,
2013-04-29 01:42:00,43.0,40.0,-100.00,South,180,3.0,-999.0,88,-99.99,,,-99.99,0.000000,,2013-04-29 06:42:00,
2013-04-29 01:52:00,43.0,40.0,-100.00,South,180,3.0,-999.0,88,-99.99,,,-99.99,0.000000,,2013-04-29 06:52:00,
2013-04-29 02:00:00,42.0,40.0,-100.00,SSE,157,2.0,-999.0,90,-99.99,,,-99.99,0.000000,,2013-04-29 07:00:00,
2013-04-29 02:42:00,42.0,40.0,-100.00,SSE,157,2.0,-999.0,90,-99.99,,,-99.99,0.000000,,2013-04-29 07:42:00,
2013-04-29 02:52:00,42.0,40.0,-100.00,SSE,157,2.0,-999.0,90,-99.99,,,-99.99,0.000000,,2013-04-29 07:52:00,
2013-04-29 03:00:00,42.0,40.0,-100.00,South,180,3.0,-999.0,92,-99.99,,,-99.99,0.000000,,2013-04-29 08:00:00,
2013-04-29 03:42:00,42.0,40.0,-100.00,South,180,3.0,-999.0,92,-99.99,,,-99.99,0.000000,,2013-04-29 08:42:00,
2013-04-29 03:52:00,42.0,40.0,-100.00,South,180,3.0,-999.0,92,-99.99,,,-99.99,0.000000,,2013-04-29 08:52:00,
2013-04-29 04:00:00,42.0,41.0,-100.00,SSE,157,2.0,-999.0,93,-99.99,,,-99.99,0.000000,,2013-04-29 09:00:00,
2013-04-29 04:42:00,42.0,41.0,-100.00,SSE,157,2.0,-999.0,93,-99.99,,,-99.99,0.000000,,2013-04-29 09:42:00,
2013-04-29 04:53:00,42.0,41.0,-100.00,SSE,157,2.0,-999.0,93,-99.99,,,-99.99,0.000000,,2013-04-29 09:53:00,
2013-04-29 05:00:00,43.0,41.0,-100.00,SSW,202,2.0,-999.0,94,-99.99,,,-99.99,0.000000,,2013-04-29 10:00:00,
2013-04-29 05:42:00,43.0,41.0,-100.00,SSW,202,2.0,-999.0,94,-99.99,,,-99.99,0.000000,,2013-04-29 10:42:00,
2013-04-29 05:52:00,43.0,41.0,-100.00,SSW,202,2.0,-999.0,94,-99.99,,,-99.99,0.000000,,2013-04-29 10:52:00,
2013-04-29 06:00:00,45.0,43.0,-100.00,SSW,202,2.0,-999.0,93,-99.99,,,-99.99,1.160000,,2013-04-29 11:00:00,
2013-04-29 06:42:00,45.0,43.0,-100.00,SSW,202,2.0,-999.0,93,-99.99,,,-99.99,1.160000,,2013-04-29 11:42:00,
2013-04-29 06:52:00,45.0,43.0,-100.00,SSW,202,2.0,-999.0,93,-99.99,,,-99.99,1.160000,,2013-04-29 11:52:00,
2013-04-29 08:00:00,44.0,42.0,-100.00,SSE,157,3.0,-999.0,94,0.01,,,-99.99,38.279999,,2013-04-29 13:00:00,
2013-04-29 08:42:00,44.0,42.0,-100.00,SSE,157,3.0,-999.0,94,0.01,,,-99.99,38.279999,,2013-04-29 13:42:00,
2013-04-29 08:52:00,44.0,42.0,-100.00,SSE,157,3.0,-999.0,94,0.01,,,-99.99,38.279999,,2013-04-29 13:52:00,
2013-04-29 09:00:00,44.0,43.0,-100.00,SSE,157,4.0,-999.0,95,0.01,,,-99.99,96.279999,,2013-04-29 14:00:00,
2013-04-29 09:42:00,44.0,43.0,-100.00,SSE,157,4.0,-999.0,95,0.01,,,-99.99,96.279999,,2013-04-29 14:42:00,
2013-04-29 09:52:00,44.0,43.0,-100.00,SSE,157,4.0,-999.0,95,0.01,,,-99.99,96.279999,,2013-04-29 14:52:00,
2013-04-29 10:00:00,47.0,45.0,-100.00,South,180,4.0,-999.0,94,-99.99,,,-99.99,178.639999,,2013-04-29 15:00:00,
2013-04-29 10:43:00,47.0,45.0,-100.00,South,180,4.0,-999.0,94,-99.99,,,-99.99,178.639999,,2013-04-29 15:43:00,
2013-04-29 10:53:00,47.0,45.0,-100.00,South,180,4.0,-999.0,94,-99.99,,,-99.99,178.639999,,2013-04-29 15:53:00,
2013-04-29 11:00:00,50.0,48.0,-100.00,South,180,4.0,-999.0,92,-99.99,,,-99.99,194.880005,,2013-04-29 16:00:00,
2013-04-29 11:42:00,50.0,48.0,-100.00,South,180,4.0,-999.0,92,-99.99,,,-99.99,194.880005,,2013-04-29 16:42:00,
2013-04-29 11:52:00,50.0,48.0,-100.00,South,180,4.0,-999.0,92,-99.99,,,-99.99,194.880005,,2013-04-29 16:52:00,
2013-04-29 12:00:00,51.0,49.0,-100.00,South,180,4.0,-999.0,93,0.05,,,-99.99,125.279999,,2013-04-29 17:00:00,
2013-04-29 12:42:00,51.0,49.0,-100.00,South,180,4.0,-999.0,93,0.05,,,-99.99,125.279999,,2013-04-29 17:42:00,
2013-04-29 12:52:00,51.0,49.0,-100.00,South,180,4.0,-999.0,93,0.05,,,-99.99,125.279999,,2013-04-29 17:52:00,
2013-04-29 13:00:00,50.0,48.0,-100.00,SE,135,3.0,-999.0,94,0.04,,,-99.99,97.440002,,2013-04-29 18:00:00,
2013-04-29 13:42:00,50.0,48.0,-100.00,SE,135,3.0,-999.0,94,0.04,,,-99.99,97.440002,,2013-04-29 18:42:00,
2013-04-29 13:52:00,50.0,48.0,-100.00,SE,135,3.0,-999.0,94,0.04,,,-99.99,97.440002,,2013-04-29 18:52:00,
2013-04-29 15:00:00,55.0,51.0,-100.00,South,180,5.0,-999.0,87,-99.99,,,-99.99,249.399994,,2013-04-29 20:00:00,
2013-04-29 15:42:00,55.0,51.0,-100.00,South,180,5.0,-999.0,87,-99.99,,,-99.99,249.399994,,2013-04-29 20:42:00,
2013-04-29 15:52:00,55.0,51.0,-100.00,South,180,5.0,-999.0,87,-99.99,,,-99.99,249.399994,,2013-04-29 20:52:00,
2013-04-29 18:00:00,53.0,49.0,-100.00,SSE,157,6.0,-999.0,86,-99.99,,,-99.99,233.160004,,2013-04-29 23:00:00,
2013-04-29 18:42:00,53.0,49.0,-100.00,SSE,157,6.0,-999.0,86,-99.99,,,-99.99,233.160004,,2013-04-29 23:42:00,
2013-04-29 18:52:00,53.0,49.0,-100.00,SSE,157,6.0,-999.0,86,-99.99,,,-99.99,233.160004,,2013-04-29 23:52:00,